Weather History for Wright-Patt AFB, OH

Change the Weather History Date:

Monday, March 18, 2013

  Actual Average Record
Temperature  
Mean Temperature 40 °F -  
Max Temperature 49 °F 48 °F 78 °F (2012)
Min Temperature 32 °F 28 °F 23 °F (2004)
Degree Days  
Heating Degree Days 24    
Moisture  
Dew Point 36 °F    
Average Humidity 88    
Maximum Humidity 100    
Minimum Humidity 70    
Precipitation  
Precipitation 0.82 in - - ()
Sea Level Pressure  
Sea Level Pressure 29.77 in    
Wind  
Wind Speed 11 mph (SSE)    
Max Wind Speed 20 mph    
Max Gust Speed 32 mph    
Visibility 8 miles    
Events Rain    
Averages and records for this station are not official NWS values.
T = Trace of Precipitation, MM = Missing Value Source: NWS Daily Summary

Daily Weather History Graph

Daily Weather History Graph

Search for Another Location

Airport:

Trip Planner

Search our weather history database for the weather conditions in past years. The results will help you decide how hot, cold, wet, or windy it might be!

Date:

Astronomy

Mar. 18, 2013 Rise Set
Actual Time 7:42 AM EDT 7:46 PM EDT
Civil Twilight 7:15 AM EDT 8:13 PM EDT
Nautical Twilight 6:44 AM EDT 8:44 PM EDT
Astronomical Twilight 6:12 AM EDT 9:16 PM EDT
Moon 11:41 AM EDT (3/18) 1:44 AM EDT (3/18)
Length of Visible Light 12h 57m
Length of Day
12h 04m
Waxing Crescent, 40% of the Moon is Illuminated
Mar 18
Waxing Crescent
Mar 19
First Quarter
Mar 27
Full
Apr 3
Last Quarter
Apr 10
New

Hourly Weather History & Observations

Time (EDT) Temp. Windchill Dew Point Humidity Pressure Visibility Wind Dir Wind Speed Gust Speed Precip Events Conditions
12:37 AM 35.6 °F 27.1 °F 26.6 °F 70% 30.04 in 10.0 mi ENE 12.7 mph - N/A Rain Light Rain
12:52 AM 35.6 °F 28.0 °F 26.6 °F 70% 30.04 in 10.0 mi ENE 10.4 mph - N/A Rain Light Ice Pellets
12:55 AM 35.1 °F 26.9 °F 26.4 °F 71% 30.04 in 10.0 mi ENE 11.5 mph - 0.00 in Rain Light Ice Pellets
1:32 AM 33.8 °F 25.3 °F 28.4 °F 81% 30.02 in 10.0 mi ENE 11.5 mph - N/A Rain Light Rain
1:55 AM 33.6 °F 23.7 °F 28.4 °F 81% 30.01 in 10.0 mi East 15.0 mph - 0.00 in Rain Light Rain
2:33 AM 33.8 °F 24.3 °F 28.4 °F 81% 29.99 in 6.0 mi East 13.8 mph - N/A Rain Rain
2:55 AM 32.9 °F 24.7 °F 29.3 °F 87% 29.98 in 5.0 mi ENE 10.4 mph - 0.13 in Rain Rain
3:45 AM 32.0 °F 23.6 °F 30.2 °F 93% 29.94 in 5.0 mi ENE 10.4 mph - N/A Rain Light Rain
3:55 AM 32.5 °F 24.8 °F 29.7 °F 89% 29.93 in 6.0 mi ENE 9.2 mph - 0.13 in Rain Light Rain
4:37 AM 32.0 °F 25.6 °F 30.2 °F 93% 29.88 in 7.0 mi ENE 6.9 mph - N/A Rain Light Rain
4:55 AM 32.7 °F 27.3 °F 30.2 °F 90% 29.88 in 8.0 mi East 5.8 mph - 0.06 in Rain Light Rain
5:47 AM 33.8 °F 27.0 °F 30.2 °F 87% 29.84 in 5.0 mi ESE 8.1 mph - N/A Rain Rain
5:55 AM 33.1 °F 26.1 °F 30.7 °F 91% 29.84 in 5.0 mi East 8.1 mph - 0.17 in Rain Rain
6:55 AM 33.8 °F 24.3 °F 31.5 °F 91% 29.77 in 6.0 mi East 13.8 mph 23.0 mph 0.17 in Rain Light Rain
7:02 AM 33.8 °F 23.9 °F 32.0 °F 93% 29.75 in 4.0 mi ESE 15.0 mph - N/A Rain Rain
7:13 AM 33.8 °F 24.3 °F 32.0 °F 93% 29.73 in 4.0 mi East 13.8 mph 20.7 mph N/A Rain Heavy Rain
7:21 AM 33.8 °F 24.8 °F 32.0 °F 93% 29.75 in 7.0 mi ESE 12.7 mph - N/A Rain Light Rain
7:55 AM 35.4 °F - 32.7 °F 90% 29.80 in 6.0 mi Calm Calm - 0.13 in Rain Light Rain
8:16 AM 35.6 °F 29.2 °F 33.8 °F 93% 29.77 in 10.0 mi ESE 8.1 mph - N/A   Overcast
8:55 AM 35.4 °F 27.8 °F 32.9 °F 91% 29.76 in 10.0 mi East 10.4 mph - 0.01 in Rain Light Rain
9:55 AM 36.9 °F 31.4 °F 34.2 °F 90% 29.75 in 10.0 mi ESE 6.9 mph - N/A   Overcast
10:49 AM 39.2 °F 33.6 °F 35.6 °F 87% 29.71 in 10.0 mi ESE 8.1 mph - N/A   Light Drizzle
10:55 AM 38.7 °F 34.3 °F 36.1 °F 91% 29.70 in 10.0 mi ESE 5.8 mph - 0.00 in   Light Drizzle
11:03 AM 39.2 °F 33.0 °F 35.6 °F 87% 29.71 in 10.0 mi SE 9.2 mph - N/A   Overcast
11:32 AM 39.2 °F 34.2 °F 37.4 °F 93% 29.70 in 10.0 mi ESE 6.9 mph - N/A   Overcast
11:55 AM 40.1 °F 34.7 °F 37.4 °F 90% 29.70 in 2.5 mi SE 8.1 mph - 0.00 in   Light Drizzle
12:04 PM 41.0 °F 37.1 °F 37.4 °F 87% 29.70 in 7.0 mi SE 5.8 mph - N/A   Light Drizzle
12:23 PM 41.0 °F 37.1 °F 39.2 °F 93% 29.75 in 1.5 mi ESE 5.8 mph - N/A   Light Drizzle
12:35 PM 41.0 °F 37.1 °F 39.2 °F 93% 29.67 in 4.0 mi ESE 5.8 mph - N/A   Light Drizzle
12:48 PM 41.0 °F 35.8 °F 41.0 °F 100% 29.67 in 7.0 mi SSE 8.1 mph - N/A   Overcast
12:55 PM 41.9 °F 36.3 °F 40.3 °F 94% 29.67 in 7.0 mi SSE 9.2 mph - 0.01 in   Overcast
1:11 PM 42.8 °F 40.1 °F 41.0 °F 93% 29.67 in 2.0 mi SE 4.6 mph - N/A   Light Drizzle
1:27 PM 42.8 °F 41.1 °F 41.0 °F 93% 29.66 in 1.5 mi South 3.5 mph - N/A   Light Drizzle
1:55 PM 43.7 °F 42.1 °F 42.8 °F 97% 29.66 in 1.0 mi South 3.5 mph - 0.00 in   Light Drizzle
2:42 PM 46.4 °F 42.9 °F 46.4 °F 100% 29.66 in 3.0 mi SSW 6.9 mph - N/A   Light Drizzle
2:55 PM 47.1 °F - 46.8 °F 99% 29.62 in 10.0 mi SSW 10.4 mph - 0.00 in   Overcast
3:08 PM 48.2 °F - 48.2 °F 100% 29.61 in 10.0 mi South 9.2 mph - N/A   Overcast
3:16 PM 48.2 °F - 48.2 °F 100% 29.61 in 10.0 mi SSW 9.2 mph - N/A   Overcast
3:55 PM 48.4 °F - 47.3 °F 96% 29.61 in 10.0 mi SSW 8.1 mph - N/A   Overcast
4:39 PM 48.2 °F - 46.4 °F 93% 29.62 in 10.0 mi SSW 12.7 mph - N/A   Overcast
4:55 PM 49.5 °F - 46.4 °F 89% 29.61 in 10.0 mi SSW 12.7 mph - N/A   Overcast
5:55 PM 49.1 °F - 45.1 °F 86% 29.63 in 10.0 mi SSW 11.5 mph - N/A   Overcast
6:14 PM 48.2 °F - 44.6 °F 87% 29.64 in 10.0 mi SW 12.7 mph - N/A   Overcast
6:55 PM 48.0 °F - 42.4 °F 81% 29.67 in 10.0 mi SW 17.3 mph - N/A   Overcast
7:45 PM 44.6 °F 37.2 °F 41.0 °F 87% 29.71 in 10.0 mi WSW 17.3 mph 26.5 mph N/A Rain Light Rain
7:55 PM 44.8 °F 36.9 °F 39.7 °F 82% 29.71 in 10.0 mi WSW 19.6 mph 32.2 mph 0.01 in Rain Light Rain
8:08 PM 44.6 °F 38.1 °F 39.2 °F 81% 29.73 in 10.0 mi WSW 13.8 mph 21.9 mph N/A   Overcast
8:45 PM 42.8 °F 35.8 °F 39.2 °F 87% 29.75 in 10.0 mi WSW 13.8 mph 26.5 mph N/A   Overcast
8:55 PM 43.0 °F 36.8 °F 38.3 °F 84% 29.75 in 10.0 mi WSW 11.5 mph - N/A   Overcast
9:22 PM 42.8 °F 35.8 °F 37.4 °F 81% 29.77 in 10.0 mi WSW 13.8 mph - N/A   Overcast
9:33 PM 42.8 °F 35.4 °F 37.4 °F 81% 29.77 in 10.0 mi WSW 15.0 mph 24.2 mph N/A   Overcast
9:45 PM 41.0 °F 32.2 °F 35.6 °F 81% 29.77 in 10.0 mi WSW 18.4 mph 21.9 mph N/A   Overcast
9:55 PM 41.5 °F 33.5 °F 36.5 °F 82% 29.78 in 10.0 mi SW 16.1 mph 23.0 mph N/A   Overcast
10:18 PM 41.0 °F 32.5 °F 35.6 °F 81% 29.79 in 10.0 mi WSW 17.3 mph 25.3 mph N/A Rain Light Rain
10:44 PM 39.2 °F 31.6 °F 35.6 °F 87% 29.81 in 10.0 mi WSW 12.7 mph - N/A Rain Light Rain
10:55 PM 39.6 °F 31.7 °F 34.9 °F 83% 29.81 in 10.0 mi WSW 13.8 mph 23.0 mph 0.00 in Rain Light Rain
11:03 PM 39.2 °F 32.5 °F 35.6 °F 87% 29.81 in 10.0 mi WSW 10.4 mph 21.9 mph N/A   Overcast
11:32 PM 39.2 °F 31.6 °F 33.8 °F 81% 29.82 in 10.0 mi WSW 12.7 mph - N/A   Overcast
11:48 PM 39.2 °F 31.2 °F 32.0 °F 75% 29.82 in 10.0 mi WSW 13.8 mph 27.6 mph N/A   Overcast
11:55 PM 39.0 °F 31.0 °F 32.9 °F 79% 29.82 in 10.0 mi WSW 13.8 mph 21.9 mph 0.00 in   Overcast